[[{"header":{"parameterUnit":"m.s-1","parameterCategory":1,"la1":30.2991,"la2":30.254,"lo1":-89.0895,"lo2":-89.0444,"dy":0.0017,"dx":0.0017,"nx":28,"ny":28,"refTime":"2024-03-31T21:00:00:Z","depth":0,"parameterNumber":2,"parameterNumberName":"U-component_of_WINDS"},"data":[0,0,0,0,0,0,0,0,0,0,0,0,0,0,0,0,0,0,0,0,0,0,0,0,0,0,0,0,0,0,0,0,0,0,0,0,0,0,0,0,0,0,0,0,0,0,0,0,0,0,0,0,0,0,0,0,0,0,0.2441,0.244,0,0.2335,0.2334,0.2333,0.233,0.2332,0.2333,0.2334,0.2226,0.2222,0.2218,0,0,0,0,0,0,0,0,0,0,0,0,0,0.2645,0.2641,0.2442,0.244,0.2439,0.2335,0.2334,0.2332,0.233,0.2332,0.2333,0.2335,0.2227,0.2222,0.2217,0,0,0,0,0,0,0,0,0,0,0,0,0,0.2549,0.264,0.2442,0.2425,0.2423,0.2335,0.2334,0.2332,0.233,0.2332,0.2334,0.2336,0.2229,0.2223,0.2217,0.2139,0,0,0.2198,0.2195,0,0,0,0,0,0,0,0,0.2555,0.2542,0.2429,0.2426,0.2423,0.2348,0.2366,0.2267,0.2329,0.2365,0.2334,0.2337,0.2265,0.2256,0.2232,0.2134,0.2129,0.2197,0.2194,0.2191,0.2189,0,0,0,0,0,0,0,0.2561,0.2546,0.2399,0.2427,0.2424,0.2424,0.2412,0.2347,0.2305,0.2362,0.2362,0.2349,0.2264,0.2238,0.2229,0.2128,0.2198,0.2192,0.2188,0.2186,0.1963,0.1961,0,0,0,0,0,0,0.2571,0.2552,0.2403,0.2396,0.2495,0.2419,0.2406,0.237,0.2306,0.2298,0.2348,0.2349,0.2247,0.2236,0.2225,0.2131,0.2191,0.2185,0.2182,0.1965,0.1962,0.196,0,0,0,0,0,0,0.2575,0.2558,0.2407,0.2474,0.2455,0.2413,0.2373,0.2367,0.2341,0.2295,0.2288,0.2328,0.2248,0.2234,0.2161,0.2127,0.2182,0.2177,0.1967,0.1964,0.1961,0.1941,0,0,0,0,0,0,0.2581,0.2559,0.2529,0.2473,0.2451,0.2344,0.2371,0.2363,0.233,0.2332,0.2275,0.2267,0.2249,0.217,0.2155,0.212,0.2172,0.197,0.1966,0.1962,0.1944,0.1937,0.1931,0,0,0,0,0,0.2588,0.2527,0.2527,0.2509,0.2412,0.2342,0.2329,0.2309,0.2327,0.2297,0.2268,0.2269,0.2133,0.2163,0.2145,0.2108,0.1972,0.1967,0.1962,0.1947,0.1939,0.1931,0,0,0,0,0,0,0.2579,0.2519,0.2519,0.2437,0.2395,0.2341,0.2302,0.23,0.2251,0.2254,0.2231,0.2219,0.2146,0.212,0.2153,0.203,0.2055,0.2047,0.205,0.2041,0.2035,0.2043,0.2167,0,0,0,0,0,0.2568,0.2515,0.2466,0.2399,0.2378,0.2344,0.2312,0.23,0.2255,0.2237,0.2202,0.2159,0.2107,0.2072,0.2022,0.1941,0.1929,0.1907,0.19,0.1895,0.1888,0.1845,0.1834,0.1943,0.1943,0.1943,0,0,0.2543,0.2504,0.2472,0.2396,0.2362,0.2309,0.2328,0.2271,0.2232,0.2228,0.2157,0.2131,0.2081,0.2004,0.1968,0.1979,0.1855,0.1889,0.1885,0.188,0.1838,0.1828,0.1819,0.194,0.1941,0.1941,0,0,0.2472,0.2437,0.2378,0.2343,0.2291,0.2269,0.2255,0.2202,0.2184,0.2113,0.211,0.2063,0.1973,0.1938,0.1908,0.1826,0.1826,0.181,0.1776,0.1734,0.1725,0.1717,0.1689,0.1679,0.1803,0.1803,0.1803,0,0.2448,0.2368,0.2348,0.2291,0.2258,0.2253,0.2194,0.2161,0.2095,0.2073,0.2086,0.1974,0.194,0.1856,0.1836,0.1812,0.1796,0.1816,0.1728,0.172,0.1713,0.1685,0.1674,0.1801,0.1802,0.1802,0.1802,0,0.2342,0.2286,0.2245,0.2182,0.2144,0.2086,0.2058,0.2023,0.2015,0.1992,0.192,0.1879,0.1821,0.18,0.1791,0.1715,0.1723,0.1733,0.1758,0.1701,0.1675,0.1664,0.1799,0.18,0.18,0.1801,0,0,0.226,0.2188,0.2173,0.2145,0.2088,0.2045,0.1988,0.193,0.1901,0.1856,0.1808,0.1733,0.1742,0.1708,0.1696,0.1659,0.1598,0.1673,0.1672,0.1661,0.1512,0.1506,0.1494,0.1598,0.1596,0.1594,0.1517,0,0.2183,0.2081,0.2062,0.1973,0.1922,0.1918,0.1868,0.1828,0.1805,0.1759,0.1735,0.1682,0.1697,0.1677,0.1641,0.1613,0.1568,0.1618,0.1554,0.1551,0.1566,0.148,0.1472,0.1401,0.1506,0.1504,0.1503,0,0.2079,0.2032,0.1938,0.1889,0.1867,0.1823,0.177,0.1726,0.1681,0.1667,0.1631,0.1623,0.1564,0.1592,0.1512,0.1547,0.152,0.1502,0.1499,0.1492,0.1524,0.1471,0.1377,0.1367,0.1487,0.1488,0.1489,0,0.203,0.1943,0.1876,0.1852,0.1793,0.1762,0.1736,0.1694,0.1661,0.1615,0.1594,0.1542,0.1514,0.1474,0.1453,0.1475,0.1374,0.14,0.1362,0.1362,0.134,0.1342,0.1241,0.1323,0.1323,0.1323,0.1323,0,0.1945,0.1888,0.1853,0.1812,0.1748,0.1728,0.1665,0.164,0.1603,0.1557,0.1551,0.1508,0.1483,0.1437,0.142,0.1357,0.1344,0.1332,0.1328,0.1332,0.1334,0.1314,0.1318,0.132,0.1321,0.1321,0.1322,0,0.1879,0.1853,0.178,0.1731,0.1718,0.1673,0.1631,0.1592,0.157,0.1512,0.1498,0.1463,0.1409,0.1385,0.1317,0.1306,0.1234,0.1234,0.1249,0.1248,0.1211,0.1215,0.1094,0.1078,0.117,0.1169,0.1168,0,0.1827,0.1783,0.173,0.1699,0.1672,0.1623,0.159,0.1569,0.1535,0.1482,0.1449,0.1394,0.135,0.1264,0.1233,0.1182,0.1181,0.1142,0.1173,0.1179,0.1181,0.1184,0.118,0.1137,0.1136,0.1135,0.1134,0,0.1738,0.1728,0.168,0.1629,0.159,0.1548,0.1508,0.1483,0.1456,0.1418,0.1363,0.1329,0.1261,0.1207,0.1155,0.1129,0.1127,0.1125,0.1113,0.1117,0.1128,0.1123,0.1234,0.1128,0.1128,0.1129,0.1129,0.1129,0.1677,0.1638,0.1595,0.1543,0.1511,0.1473,0.1434,0.1408,0.1361,0.1305,0.1295,0.1237,0.1195,0.1124,0.1097,0.1051,0.1061,0.1044,0.104,0.1036,0.1034,0.1136,0.1042,0.1042,0.1042,0.1042,0.1042,0,0.1588,0.156,0.1513,0.1457,0.1416,0.1418,0.1374,0.134,0.1289,0.125,0.1206,0.1144,0.1092,0.1059,0.1007,0.0977,0.0975,0.0964,0.0966,0.0961,0.1028,0.1044,0.0967,0.0967,0.0967,0.0967,0.0967,0.0967,0.1536,0.1471,0.1457,0.1376,0.1349,0.1292,0.1266,0.1232,0.1201,0.1132,0.1089,0.1067,0.1031,0.0977,0.093,0.0922,0.0903,0.0892,0.0884,0.0948,0.0956,0.0963,0.0978,0.0888,0.0888,0.082,0.082,0.0819]},{"header":{"parameterUnit":"m.s-1","parameterCategory":1,"la1":30.2991,"la2":30.254,"lo1":-89.0895,"lo2":-89.0444,"dy":0.0017,"dx":0.0017,"nx":28,"ny":28,"refTime":"2024-03-31T21:00:00:Z","depth":0,"parameterNumber":3,"parameterNumberName":"V-component_of_WINDS"},"data":[0,0,0,0,0,0,0,0,0,0,0,0,0,0,0,0,0,0,0,0,0,0,0,0,0,0,0,0,0,0,0,0,0,0,0,0,0,0,0,0,0,0,0,0,0,0,0,0,0,0,0,0,0,0,0,0,0,0,1.8894,1.8894,0,1.8866,1.8865,1.8865,1.8892,1.8893,1.8894,1.8895,1.8864,1.8862,1.886,0,0,0,0,0,0,0,0,0,0,0,0,0,1.8972,1.897,1.8894,1.8894,1.8894,1.8866,1.8865,1.8865,1.8892,1.8893,1.8894,1.8895,1.8864,1.8862,1.886,0,0,0,0,0,0,0,0,0,0,0,0,0,1.894,1.897,1.8894,1.8904,1.8904,1.8866,1.8865,1.8865,1.8891,1.8893,1.8894,1.8896,1.8865,1.8862,1.886,1.881,0,0,1.8851,1.885,0,0,0,0,0,0,0,0,1.8942,1.8937,1.8903,1.8903,1.8903,1.8884,1.8881,1.8846,1.8891,1.8896,1.8895,1.8897,1.8869,1.8866,1.8857,1.8809,1.8807,1.8851,1.8849,1.8848,1.8847,0,0,0,0,0,0,0,1.8944,1.8939,1.8883,1.8902,1.8902,1.8909,1.8906,1.8875,1.8874,1.8896,1.8898,1.8894,1.887,1.886,1.8856,1.8807,1.8851,1.8849,1.8847,1.8846,1.872,1.8719,0,0,0,0,0,0,1.8945,1.894,1.8884,1.8882,1.8927,1.8906,1.8903,1.8889,1.8874,1.8874,1.8893,1.8895,1.8864,1.886,1.8855,1.8799,1.8848,1.8846,1.8844,1.8722,1.872,1.8718,0,0,0,0,0,0,1.8947,1.894,1.8885,1.8912,1.8905,1.8903,1.8886,1.8887,1.8877,1.8872,1.8872,1.8883,1.8865,1.8859,1.8822,1.8798,1.8844,1.8842,1.8724,1.8721,1.8719,1.8685,0,0,0,0,0,0,1.8949,1.8941,1.8921,1.8911,1.8904,1.8852,1.8885,1.8885,1.8873,1.8876,1.8863,1.8862,1.8866,1.8826,1.8819,1.8795,1.884,1.8726,1.8723,1.872,1.8688,1.8681,1.8675,0,0,0,0,0,1.8952,1.8912,1.892,1.8913,1.888,1.885,1.8846,1.8852,1.8871,1.8852,1.8849,1.8862,1.8802,1.8822,1.8815,1.879,1.8728,1.8724,1.872,1.8691,1.8682,1.8676,0,0,0,0,0,0,1.8918,1.891,1.892,1.8875,1.8864,1.8855,1.8831,1.8843,1.8824,1.8828,1.8835,1.8832,1.8794,1.8788,1.881,1.8743,1.8768,1.8762,1.8748,1.874,1.8734,1.8737,1.8837,0,0,0,0,0,1.8905,1.8882,1.8877,1.8838,1.8832,1.8833,1.882,1.8826,1.8813,1.8808,1.8802,1.879,1.8768,1.8754,1.8733,1.8687,1.8686,1.8666,1.866,1.8655,1.8651,1.8628,1.862,1.8706,1.8706,1.8706,0,0,1.8878,1.8872,1.8856,1.8831,1.8823,1.8799,1.8828,1.8801,1.8784,1.8804,1.8769,1.8765,1.8751,1.871,1.8692,1.8704,1.8627,1.865,1.8646,1.8644,1.8624,1.8616,1.8608,1.8703,1.8704,1.8704,0,0,1.8819,1.881,1.8779,1.8771,1.8758,1.8759,1.8752,1.8742,1.8741,1.8706,1.8722,1.8701,1.8663,1.8654,1.8644,1.8584,1.8597,1.8577,1.8545,1.8524,1.8517,1.8511,1.8492,1.8484,1.8573,1.8573,1.8573,0,1.8787,1.8753,1.8761,1.8734,1.8723,1.8742,1.8711,1.8702,1.8683,1.8675,1.8689,1.8645,1.8636,1.8595,1.8581,1.8571,1.8564,1.8579,1.8517,1.8512,1.8506,1.8488,1.848,1.8571,1.8571,1.8571,1.8571,0,1.8716,1.8692,1.8667,1.8651,1.8638,1.8608,1.8613,1.8598,1.8606,1.8606,1.8572,1.8563,1.8543,1.8533,1.8539,1.8493,1.8502,1.8516,1.8542,1.8496,1.8479,1.8472,1.8568,1.8568,1.8569,1.8569,0,0,1.8631,1.8623,1.8614,1.8608,1.8597,1.8579,1.8551,1.8533,1.8521,1.8508,1.8486,1.8455,1.847,1.8459,1.8464,1.8445,1.8401,1.8463,1.8463,1.8453,1.8352,1.8342,1.8334,1.8409,1.8408,1.8407,1.8354,0,1.8573,1.8526,1.8534,1.8489,1.8469,1.8488,1.8464,1.8455,1.8455,1.8437,1.8437,1.8416,1.8436,1.843,1.8412,1.841,1.8381,1.8414,1.839,1.8389,1.8394,1.8325,1.8313,1.8264,1.8347,1.8346,1.8345,0,1.8498,1.8485,1.8438,1.8434,1.8425,1.8404,1.8389,1.8372,1.8363,1.8364,1.8354,1.8364,1.8337,1.8363,1.8328,1.835,1.8341,1.8339,1.8337,1.8336,1.8365,1.8323,1.8248,1.8241,1.8335,1.8335,1.8336,0,1.8444,1.8414,1.8383,1.8377,1.8371,1.8356,1.8352,1.8345,1.8334,1.8321,1.8315,1.8298,1.829,1.8277,1.8283,1.8301,1.8247,1.8273,1.8248,1.8248,1.8236,1.8237,1.816,1.8228,1.8228,1.8228,1.8229,0,1.8378,1.8349,1.836,1.8341,1.831,1.832,1.8289,1.8287,1.8281,1.8263,1.8277,1.826,1.8268,1.8251,1.8255,1.8227,1.8222,1.8223,1.8225,1.8222,1.8222,1.8217,1.8221,1.8227,1.8227,1.8227,1.8228,0,1.8313,1.8318,1.8286,1.8284,1.8283,1.826,1.8258,1.8241,1.8243,1.8219,1.8215,1.8217,1.8199,1.8203,1.8182,1.8185,1.815,1.8155,1.8153,1.8155,1.8131,1.8134,1.8048,1.8039,1.8112,1.8111,1.811,0,1.8271,1.825,1.8246,1.8236,1.8232,1.8214,1.8204,1.8214,1.8203,1.8193,1.8177,1.816,1.8147,1.8116,1.8116,1.8101,1.8107,1.8078,1.8104,1.8104,1.8109,1.811,1.8109,1.8073,1.8072,1.8072,1.8071,0,1.8197,1.8202,1.8187,1.8175,1.8163,1.8153,1.8145,1.8135,1.8144,1.8131,1.8114,1.8104,1.8084,1.8067,1.8054,1.805,1.8062,1.8063,1.8057,1.8055,1.8055,1.8057,1.814,1.8065,1.8065,1.8066,1.8066,1.8066,1.8143,1.8126,1.8122,1.8107,1.8102,1.8094,1.8079,1.808,1.8066,1.8051,1.8058,1.8038,1.8032,1.8015,1.801,1.7995,1.8005,1.7996,1.7994,1.7992,1.799,1.8057,1.7992,1.7992,1.7992,1.7992,1.7992,0,1.8071,1.8071,1.8056,1.8045,1.8034,1.8048,1.804,1.8029,1.8011,1.8005,1.7993,1.7974,1.7958,1.7958,1.7944,1.7932,1.7938,1.7928,1.793,1.7929,1.798,1.7987,1.7924,1.7924,1.7924,1.7924,1.7924,1.7924,1.8033,1.8006,1.8011,1.7983,1.7982,1.7963,1.7958,1.7952,1.7947,1.7926,1.7914,1.7914,1.7911,1.7898,1.7885,1.7885,1.788,1.7869,1.7871,1.7919,1.7925,1.7932,1.7939,1.7867,1.7867,1.7823,1.7822,1.7822]}]]